Regional Weather Roundup
Issued by NWS

Home | Current Version | Previous Version | Graphics & Text | Print | Product List | Glossary On
Versions: 1 2 3 4 5 6 7 8 9 10 11 12 13 14 15 16 17 18 19 20 21 22 23 24 25 26 27 28 29 30 31 32 33 34 35 36 37 38 39 40 41 42 43 44 45 46 47 48 49 50
000
ASUS43 KLMK 041202
RWRKY
KENTUCKY REGIONAL WEATHER ROUNDUP
NATIONAL WEATHER SERVICE LOUISVILLE KY
800 AM EDT SAT JUL 04 2015

NOTE "FAIR" INDICATES FEW OR NO CLOUDS BELOW 12,000 FEET
WITH NO SIGNIFICANT WEATHER AND/OR OBSTRUCTIONS TO VISIBILITY.

KYZ001>023-026-027-061>063-070>075-041300-
WESTERN AND SOUTH CENTRAL KENTUCKY

CITY           SKY/WX    TMP DP  RH WIND       PRES   REMARKS
PADUCAH        CLOUDY    70  68  93 NE5       29.96R FOG
HENDERSON      MOSUNNY   66  64  94 NE5       29.97R
OWENSBORO      PTSUNNY  N/A N/A N/A N5        29.98  FOG
HOPKINSVILLE   MOSUNNY   72  69  92 SW3       29.97R
BOWLING GREEN  PTSUNNY   71  69  93 W3        29.97R
GLASGOW        NOT AVBL
$$

KYZ024-025-028>034-038-045-046-053-041300-
NORTH CENTRAL KENTUCKY

CITY           SKY/WX    TMP DP  RH WIND       PRES   REMARKS
LOUISVILLE/SDF CLOUDY    71  67  87 NE5       29.97R FOG
LOUISVILLE/LOU MOSUNNY   69  66  90 N3        29.97R FOG
FORT KNOX      CLOUDY    69  68  97 S3        29.96R FOG
$$

KYZ035>037-039>044-047>052-055>060-089>105-041300-
NORTHEAST KENTUCKY

CITY           SKY/WX    TMP DP  RH WIND       PRES   REMARKS
LEXINGTON      CLOUDY    67  66  97 N3        29.98R FOG
COVINGTON      PTSUNNY   68  62  81 E6        29.98R
FRANKFORT      CLOUDY    68  65  90 CALM      29.97R FOG
$$

KYZ054-064>069-076>088-106>120-041300-
SOUTHEAST KENTUCKY

CITY           SKY/WX    TMP DP  RH WIND       PRES   REMARKS
JACKSON        CLOUDY    68  66  93 CALM      29.99R FOG
LONDON         CLOUDY    70  65  84 SW5       29.99R
SOMERSET       NOT AVBL
MIDDLESBORO    CLOUDY    68  67  97 CALM      30.01R
MONTICELLO     FOG       70  70 100 CALM      30.01R VSB 3/4
$$




USA.gov is the U.S. government's official web portal to all federal, state and local government web resources and services.